Time,TemperatureF,DewpointF,PressureIn,WindDirection,WindDirectionDegrees,WindSpeedMPH,WindSpeedGustMPH,Humidity,HourlyPrecipIn,Conditions,Clouds,dailyrainin,SoftwareType,DateUTC
2013-03-06 00:02:00,26.5,25.0,30.07,North,350,3.0,6.0,93,0.00,,,0.03,weatherlink.com 1.10,2013-03-06 06:02:00,
2013-03-06 00:17:00,26.6,25.0,30.08,NW,315,3.0,7.0,92,0.00,,,0.03,weatherlink.com 1.10,2013-03-06 06:17:00,
2013-03-06 00:32:00,26.6,25.0,30.09,North,360,1.0,6.0,92,0.00,,,0.03,weatherlink.com 1.10,2013-03-06 06:32:00,
2013-03-06 00:47:00,26.7,25.0,30.10,NNW,332,4.0,7.0,91,0.00,,,0.03,weatherlink.com 1.10,2013-03-06 06:47:00,
2013-03-06 01:02:00,27.0,25.0,30.11,North,9,4.0,10.0,91,0.00,,,0.03,weatherlink.com 1.10,2013-03-06 07:02:00,
2013-03-06 01:17:00,27.1,25.0,30.12,NW,309,5.0,7.0,91,0.00,,,0.03,weatherlink.com 1.10,2013-03-06 07:17:00,
2013-03-06 01:32:00,27.2,25.0,30.12,NNW,347,1.0,8.0,90,0.00,,,0.03,weatherlink.com 1.10,2013-03-06 07:32:00,
2013-03-06 01:47:00,27.1,25.0,30.12,NW,311,3.0,7.0,91,0.00,,,0.03,weatherlink.com 1.10,2013-03-06 07:47:00,
2013-03-06 02:02:00,27.1,25.0,30.12,NNW,344,6.0,9.0,91,0.00,,,0.03,weatherlink.com 1.10,2013-03-06 08:02:00,
2013-03-06 02:17:00,27.1,25.0,30.13,NNW,333,3.0,8.0,90,0.00,,,0.03,weatherlink.com 1.10,2013-03-06 08:17:00,
2013-03-06 02:32:00,27.1,25.0,30.14,NW,323,3.0,9.0,90,0.00,,,0.03,weatherlink.com 1.10,2013-03-06 08:32:00,
2013-03-06 02:47:00,27.0,25.0,30.14,NNW,338,3.0,4.0,90,0.00,,,0.03,weatherlink.com 1.10,2013-03-06 08:47:00,
2013-03-06 03:02:00,27.0,25.0,30.14,North,351,5.0,6.0,90,0.00,,,0.03,weatherlink.com 1.10,2013-03-06 09:02:00,
2013-03-06 03:17:00,27.0,25.0,30.15,NNW,348,6.0,6.0,91,0.00,,,0.03,weatherlink.com 1.10,2013-03-06 09:17:00,
2013-03-06 03:32:00,27.0,25.0,30.16,NW,315,2.0,6.0,91,0.00,,,0.03,weatherlink.com 1.10,2013-03-06 09:32:00,
2013-03-06 03:47:00,27.0,25.0,30.16,NNW,341,3.0,6.0,91,0.00,,,0.03,weatherlink.com 1.10,2013-03-06 09:47:00,
2013-03-06 04:02:00,26.8,25.0,30.17,NNW,332,2.0,4.0,92,0.00,,,0.03,weatherlink.com 1.10,2013-03-06 10:02:00,
2013-03-06 04:17:00,26.7,25.0,30.18,NNW,336,2.0,4.0,92,0.00,,,0.03,weatherlink.com 1.10,2013-03-06 10:17:00,
2013-03-06 04:32:00,26.7,25.0,30.19,NNW,340,2.0,5.0,92,0.00,,,0.03,weatherlink.com 1.10,2013-03-06 10:32:00,
2013-03-06 04:47:00,26.7,25.0,30.20,NNW,339,3.0,5.0,92,0.00,,,0.03,weatherlink.com 1.10,2013-03-06 10:47:00,
2013-03-06 05:03:00,26.6,25.0,30.20,NNW,343,2.0,3.0,92,0.00,,,0.03,weatherlink.com 1.10,2013-03-06 11:03:00,
2013-03-06 05:18:00,26.7,25.0,30.20,NNW,333,2.0,4.0,92,0.00,,,0.03,weatherlink.com 1.10,2013-03-06 11:18:00,
2013-03-06 05:33:00,26.6,25.0,30.20,NNW,339,1.0,2.0,92,0.00,,,0.03,weatherlink.com 1.10,2013-03-06 11:33:00,
2013-03-06 05:48:00,26.6,25.0,30.20,NNW,329,2.0,2.0,93,0.00,,,0.03,weatherlink.com 1.10,2013-03-06 11:48:00,
2013-03-06 06:03:00,26.7,25.0,30.21,NNW,333,2.0,4.0,92,0.00,,,0.03,weatherlink.com 1.10,2013-03-06 12:03:00,
2013-03-06 06:18:00,26.8,25.0,30.22,NNW,329,2.0,4.0,92,0.00,,,0.03,weatherlink.com 1.10,2013-03-06 12:18:00,
2013-03-06 06:33:00,27.0,25.0,30.23,NNW,339,3.0,5.0,91,0.00,,,0.03,weatherlink.com 1.10,2013-03-06 12:33:00,
2013-03-06 06:48:00,27.1,25.0,30.23,NNW,337,2.0,5.0,91,0.00,,,0.03,weatherlink.com 1.10,2013-03-06 12:48:00,
2013-03-06 07:03:00,27.1,25.0,30.24,NW,325,2.0,6.0,91,0.00,,,0.03,weatherlink.com 1.10,2013-03-06 13:03:00,
2013-03-06 07:18:00,26.6,25.0,30.25,NNW,340,5.0,7.0,92,0.00,,,0.03,weatherlink.com 1.10,2013-03-06 13:18:00,
2013-03-06 07:33:00,26.5,25.0,30.25,NW,320,2.0,8.0,92,0.00,,,0.03,weatherlink.com 1.10,2013-03-06 13:33:00,
2013-03-06 07:48:00,26.5,25.0,30.26,WNW,303,3.0,6.0,92,0.00,,,0.03,weatherlink.com 1.10,2013-03-06 13:48:00,
2013-03-06 08:03:00,26.8,25.0,30.27,NNW,331,4.0,6.0,92,0.00,,,0.03,weatherlink.com 1.10,2013-03-06 14:03:00,
2013-03-06 08:18:00,27.0,25.0,30.27,NW,319,3.0,6.0,91,0.00,,,0.03,weatherlink.com 1.10,2013-03-06 14:18:00,
2013-03-06 08:33:00,27.6,25.0,30.27,NNW,329,4.0,6.0,90,0.00,,,0.03,weatherlink.com 1.10,2013-03-06 14:33:00,
2013-03-06 08:48:00,28.0,26.0,30.27,NNW,345,3.0,6.0,90,0.00,,,0.03,weatherlink.com 1.10,2013-03-06 14:48:00,
2013-03-06 09:04:00,28.5,26.0,30.27,NNW,327,4.0,6.0,90,0.00,,,0.03,weatherlink.com 1.10,2013-03-06 15:04:00,
2013-03-06 09:18:00,29.0,26.0,30.28,NNW,327,2.0,7.0,89,0.00,,,0.03,weatherlink.com 1.10,2013-03-06 15:18:00,
2013-03-06 09:33:00,29.4,26.0,30.29,NW,316,7.0,9.0,88,0.00,,,0.03,weatherlink.com 1.10,2013-03-06 15:33:00,
2013-03-06 09:48:00,29.7,27.0,30.30,NNW,328,2.0,8.0,88,0.00,,,0.03,weatherlink.com 1.10,2013-03-06 15:48:00,
2013-03-06 10:03:00,29.9,27.0,30.29,NNW,346,3.0,9.0,87,0.00,,,0.03,weatherlink.com 1.10,2013-03-06 16:03:00,
2013-03-06 10:18:00,30.4,27.0,30.30,NW,305,4.0,7.0,86,0.00,,,0.03,weatherlink.com 1.10,2013-03-06 16:18:00,
2013-03-06 10:35:00,30.8,27.0,30.30,NNW,331,5.0,7.0,87,0.00,,,0.03,weatherlink.com 1.10,2013-03-06 16:35:00,
2013-03-06 10:48:00,31.2,28.0,30.30,NNW,331,5.0,8.0,86,0.00,,,0.03,weatherlink.com 1.10,2013-03-06 16:48:00,
2013-03-06 11:03:00,31.3,28.0,30.30,NNW,333,3.0,8.0,86,0.00,,,0.03,weatherlink.com 1.10,2013-03-06 17:03:00,
2013-03-06 11:18:00,31.6,28.0,30.30,NNW,348,2.0,11.0,86,0.01,,,0.04,weatherlink.com 1.10,2013-03-06 17:18:00,
2013-03-06 11:33:00,31.9,28.0,30.30,NW,319,3.0,8.0,85,0.02,,,0.05,weatherlink.com 1.10,2013-03-06 17:33:00,
2013-03-06 11:48:00,31.9,28.0,30.30,NW,324,6.0,7.0,85,0.02,,,0.05,weatherlink.com 1.10,2013-03-06 17:48:00,
2013-03-06 12:03:00,32.2,28.0,30.30,NW,316,7.0,9.0,84,0.04,,,0.07,weatherlink.com 1.10,2013-03-06 18:03:00,
2013-03-06 12:18:00,32.4,28.0,30.30,NNW,333,5.0,11.0,84,0.03,,,0.07,weatherlink.com 1.10,2013-03-06 18:18:00,
2013-03-06 12:48:00,32.3,28.0,30.29,WSW,257,4.0,11.0,83,0.05,,,0.10,weatherlink.com 1.10,2013-03-06 18:48:00,
2013-03-06 13:03:00,32.9,29.0,30.29,NNW,348,2.0,7.0,84,0.04,,,0.11,weatherlink.com 1.10,2013-03-06 19:03:00,
2013-03-06 13:18:00,32.8,28.0,30.29,NW,309,3.0,7.0,83,0.05,,,0.12,weatherlink.com 1.10,2013-03-06 19:18:00,
2013-03-06 13:33:00,32.5,28.0,30.29,NW,306,6.0,9.0,83,0.04,,,0.13,weatherlink.com 1.10,2013-03-06 19:33:00,
2013-03-06 13:48:00,32.5,28.0,30.30,WNW,302,2.0,9.0,84,0.03,,,0.13,weatherlink.com 1.10,2013-03-06 19:48:00,
2013-03-06 14:03:00,32.5,28.0,30.29,NNW,327,4.0,9.0,84,0.03,,,0.14,weatherlink.com 1.10,2013-03-06 20:03:00,
2013-03-06 14:18:00,33.2,29.0,30.29,NNW,330,3.0,8.0,83,0.03,,,0.15,weatherlink.com 1.10,2013-03-06 20:18:00,
2013-03-06 14:33:00,33.4,29.0,30.29,NW,306,4.0,9.0,83,0.03,,,0.16,weatherlink.com 1.10,2013-03-06 20:33:00,
2013-03-06 14:48:00,33.3,29.0,30.29,NW,313,5.0,9.0,83,0.04,,,0.17,weatherlink.com 1.10,2013-03-06 20:48:00,
2013-03-06 15:03:00,33.4,29.0,30.30,NW,322,4.0,8.0,82,0.03,,,0.17,weatherlink.com 1.10,2013-03-06 21:03:00,
2013-03-06 15:18:00,33.7,29.0,30.30,NNW,342,5.0,7.0,83,0.03,,,0.00,weatherlink.com 1.10,2013-03-06 21:18:00,
2013-03-06 15:33:00,33.6,29.0,30.30,NW,325,3.0,7.0,82,0.03,,,0.01,weatherlink.com 1.10,2013-03-06 21:33:00,
2013-03-06 15:48:00,33.4,29.0,30.31,NW,321,3.0,6.0,82,0.02,,,0.01,weatherlink.com 1.10,2013-03-06 21:48:00,
2013-03-06 16:04:00,32.9,28.0,30.32,NW,322,3.0,8.0,83,0.03,,,0.02,weatherlink.com 1.10,2013-03-06 22:04:00,
2013-03-06 16:19:00,32.6,28.0,30.32,NNW,327,4.0,8.0,84,0.02,,,0.02,weatherlink.com 1.10,2013-03-06 22:19:00,
2013-03-06 16:34:00,32.5,28.0,30.32,NW,321,5.0,7.0,84,0.01,,,0.02,weatherlink.com 1.10,2013-03-06 22:34:00,
2013-03-06 16:49:00,32.3,28.0,30.32,NNW,329,2.0,8.0,85,0.02,,,0.03,weatherlink.com 1.10,2013-03-06 22:49:00,
2013-03-06 17:04:00,32.3,28.0,30.32,NNW,329,2.0,5.0,84,0.01,,,0.03,weatherlink.com 1.10,2013-03-06 23:04:00,
2013-03-06 17:19:00,32.0,28.0,30.32,NW,326,1.0,5.0,84,0.01,,,0.03,weatherlink.com 1.10,2013-03-06 23:19:00,
2013-03-06 17:34:00,31.7,28.0,30.32,NW,319,1.0,4.0,85,0.01,,,0.03,weatherlink.com 1.10,2013-03-06 23:34:00,
2013-03-06 17:49:00,31.4,28.0,30.32,NW,324,0.0,6.0,86,0.00,,,0.03,weatherlink.com 1.10,2013-03-06 23:49:00,
2013-03-06 18:04:00,31.3,28.0,30.33,NW,311,3.0,4.0,86,0.00,,,0.03,weatherlink.com 1.10,2013-03-07 00:04:00,
2013-03-06 18:19:00,31.3,28.0,30.33,NW,323,0.0,3.0,86,0.00,,,0.03,weatherlink.com 1.10,2013-03-07 00:19:00,
2013-03-06 18:34:00,31.1,28.0,30.34,NW,316,0.0,1.0,88,0.00,,,0.03,weatherlink.com 1.10,2013-03-07 00:34:00,
2013-03-06 18:49:00,31.0,28.0,30.34,NW,308,0.0,2.0,87,0.00,,,0.03,weatherlink.com 1.10,2013-03-07 00:49:00,
2013-03-06 19:04:00,30.9,28.0,30.34,NNW,338,0.0,4.0,87,0.00,,,0.03,weatherlink.com 1.10,2013-03-07 01:04:00,
2013-03-06 19:19:00,30.8,27.0,30.34,WNW,290,2.0,3.0,87,0.00,,,0.03,weatherlink.com 1.10,2013-03-07 01:19:00,
2013-03-06 19:34:00,30.7,27.0,30.34,WNW,287,0.0,3.0,87,0.00,,,0.03,weatherlink.com 1.10,2013-03-07 01:34:00,
2013-03-06 19:49:00,30.6,27.0,30.34,West,275,0.0,3.0,87,0.00,,,0.03,weatherlink.com 1.10,2013-03-07 01:49:00,
2013-03-06 20:04:00,30.3,27.0,30.34,WNW,287,2.0,4.0,87,0.00,,,0.03,weatherlink.com 1.10,2013-03-07 02:04:00,
2013-03-06 20:19:00,30.1,27.0,30.35,West,261,1.0,4.0,87,0.00,,,0.03,weatherlink.com 1.10,2013-03-07 02:19:00,
2013-03-06 20:34:00,30.1,27.0,30.34,WNW,283,2.0,4.0,87,0.00,,,0.03,weatherlink.com 1.10,2013-03-07 02:34:00,
2013-03-06 20:49:00,29.9,26.0,30.35,West,276,0.0,3.0,86,0.00,,,0.03,weatherlink.com 1.10,2013-03-07 02:49:00,
2013-03-06 21:04:00,29.8,26.0,30.35,West,280,1.0,3.0,87,0.00,,,0.03,weatherlink.com 1.10,2013-03-07 03:04:00,
2013-03-06 21:19:00,29.6,26.0,30.34,West,281,1.0,2.0,87,0.00,,,0.03,weatherlink.com 1.10,2013-03-07 03:19:00,
2013-03-06 21:34:00,29.4,26.0,30.34,West,273,1.0,2.0,87,0.00,,,0.03,weatherlink.com 1.10,2013-03-07 03:34:00,
2013-03-06 21:49:00,29.3,26.0,30.35,West,265,0.0,3.0,88,0.00,,,0.03,weatherlink.com 1.10,2013-03-07 03:49:00,
2013-03-06 22:04:00,29.1,26.0,30.35,West,269,0.0,2.0,87,0.00,,,0.03,weatherlink.com 1.10,2013-03-07 04:04:00,
2013-03-06 22:19:00,29.0,26.0,30.35,NW,315,0.0,3.0,88,0.00,,,0.03,weatherlink.com 1.10,2013-03-07 04:19:00,
2013-03-06 22:34:00,28.8,26.0,30.35,NW,315,0.0,2.0,88,0.00,,,0.03,weatherlink.com 1.10,2013-03-07 04:34:00,
2013-03-06 22:49:00,28.7,26.0,30.35,West,271,0.0,3.0,88,0.00,,,0.03,weatherlink.com 1.10,2013-03-07 04:49:00,
2013-03-06 23:04:00,28.6,26.0,30.34,West,267,0.0,3.0,88,0.00,,,0.03,weatherlink.com 1.10,2013-03-07 05:04:00,
2013-03-06 23:19:00,28.5,25.0,30.34,West,267,1.0,1.0,88,0.00,,,0.03,weatherlink.com 1.10,2013-03-07 05:19:00,
2013-03-06 23:34:00,28.4,25.0,30.34,West,259,2.0,3.0,88,0.00,,,0.03,weatherlink.com 1.10,2013-03-07 05:34:00,
2013-03-06 23:49:00,28.3,25.0,30.34,WSW,256,1.0,4.0,88,0.00,,,0.03,weatherlink.com 1.10,2013-03-07 05:49:00,